Location: Newark
(3.0500°N, 36.0167°E)
Time: 07:24:17
(UTC+00:00)

Transit 2A - All Passes

Search period start: 22 August 2019 00:00
Search period end: 01 September 2019 00:00
Orbit: 597 x 962 km, 66.7° (Epoch: 21 August)

Date Brightness Start Highest point End Pass type
(mag) Time Alt. Az. Time Alt. Az. Time Alt. Az.
22 Aug - 04:34:04 10° SSE 04:38:12 18° ESE 04:42:19 10° ENE daylight
22 Aug - 06:15:16 10° SW 06:21:13 42° WNW 06:27:04 10° N daylight
22 Aug - 17:06:45 10° N 17:10:54 46° ENE 17:15:03 10° SE visible
23 Aug - 04:02:54 10° ESE 04:04:06 11° ESE 04:05:18 10° E daylight
23 Aug - 05:40:50 10° SSW 05:47:09 67° WNW 05:53:20 10° NNE daylight
23 Aug - 16:33:16 10° NNE 16:36:50 25° ENE 16:40:22 10° SE visible
23 Aug - 18:18:03 10° W 18:19:39 12° WSW 18:21:17 10° SW visible
24 Aug - 05:06:43 10° SSW 05:13:04 79° ESE 05:19:19 10° NNE daylight
24 Aug - 16:00:32 10° NE 16:02:44 14° ENE 16:04:55 10° E visible
24 Aug - 17:42:15 10° WNW 17:45:35 22° WSW 17:48:58 10° SSW visible
25 Aug - 04:32:53 10° S 04:38:59 50° ESE 04:45:01 10° NE daylight
25 Aug - 06:18:33 10° WSW 06:22:02 15° WNW 06:25:29 10° NW daylight
25 Aug - 17:07:29 10° NW 17:11:32 40° WSW 17:15:37 10° S visible
26 Aug - 03:59:23 10° S 04:04:55 32° ESE 04:10:22 10° NE daylight
26 Aug - 05:42:55 10° WSW 05:47:56 24° WNW 05:52:51 10° NNW daylight
26 Aug - 16:33:10 10° NNW 16:37:28 79° WSW 16:41:49 10° SSE visible
27 Aug - 03:26:21 10° SSE 03:30:49 20° ESE 03:35:15 10° ENE daylight
27 Aug - 05:08:00 10° SW 05:13:51 38° WNW 05:19:33 10° N daylight
27 Aug - 15:59:13 10° N 16:03:24 53° ENE 16:07:39 10° SSE visible
28 Aug - 02:54:27 10° SE 02:56:44 12° ESE 02:59:00 10° E visible
28 Aug - 04:33:30 10° SSW 04:39:46 61° WNW 04:45:53 10° N daylight
28 Aug - 15:25:38 10° N 15:29:21 28° ENE 15:33:05 10° SE daylight
28 Aug - 17:11:32 10° WSW 17:12:12 10° WSW 17:12:52 10° WSW visible
29 Aug - 03:59:18 10° SSW 04:05:42 86° ESE 04:11:55 10° NNE daylight
29 Aug - 14:52:41 10° NNE 14:55:16 16° ENE 14:57:52 10° ESE daylight
29 Aug - 16:35:01 10° WNW 16:38:07 19° WSW 16:41:16 10° SSW visible
30 Aug - 03:25:25 10° S 03:31:37 55° ESE 03:37:41 10° NNE daylight
30 Aug - 05:11:43 10° W 05:14:40 13° WNW 05:17:33 10° NW daylight
30 Aug - 16:00:07 10° NW 16:04:03 35° WSW 16:08:03 10° S visible
31 Aug - 02:51:51 10° S 02:57:33 35° ESE 03:03:08 10° NE visible
31 Aug - 04:35:49 10° WSW 04:40:33 22° WNW 04:45:11 10° NNW daylight
31 Aug - 15:25:43 10° NNW 15:29:58 68° WSW 15:34:20 10° SSE daylight
